Regional Weather Roundup
Issued by NWS

Home | Current Version | Previous Version | Text Only | Print | Product List | Glossary On
Versions: 1 2 3 4 5 6 7 8 9 10 11 12 13 14 15 16 17 18 19 20 21 22 23 24 25 26 27 28 29 30 31 32 33 34 35 36 37 38 39 40 41 42 43 44 45 46 47 48 49 50
000
ASUS44 KBMX 202210
RWRAL

ALABAMA REGIONAL WEATHER ROUNDUP
NATIONAL WEATHER SERVICE BIRMINGHAM AL
500 PM CDT WED AUG 20 2014

NOTE: "FAIR" INDICATES FEW OR NO CLOUDS BELOW 12,000 FEET
WITH NO SIGNIFICANT WEATHER AND/OR OBSTRUCTIONS TO VISIBILITY.

THE REMARK "TC" DENOTES TEMPERATURE IN DEGREES CELSIUS.

ALZ001>011-014-016>018-020-202300-
NORTH ALABAMA

CITY           SKY/WX    TMP DP  RH WIND       PRES   REMARKS
MUSCLE SHOALS  SUNNY     91  72  53 W10       30.00F HX  98
HUNTSVILLE     MOSUNNY   95  70  44 W9G16     30.00F HX 101
DECATUR        SUNNY     94  71  47 W13       29.99F HX 101
HALEYVILLE     FAIR      91  73  55 VRB6      30.06F HX  99
GADSDEN        MOSUNNY   95  68  41 W10       30.00S HX  99
$$

ALZ012-013-022-023-030>036-040>044-202300-
WEST CENTRAL ALABAMA

CITY           SKY/WX    TMP DP  RH WIND       PRES   REMARKS
TUSCALOOSA     SUNNY     95  68  41 SW8       30.00S HX  99
$$

ALZ015-024>027-033>036-040>044-202300-
CENTRAL ALABAMA

CITY           SKY/WX    TMP DP  RH WIND       PRES   REMARKS
BIRMINGHAM     MOSUNNY   93  70  46 W10G20    30.03F HX  99
MONTGOMERY     MOSUNNY   94  72  48 W6        30.02F HX 102
SHELBY CO ARPT PTSUNNY   91  71  51 S5        30.02S HX  97
MAXWELL AFB    MOSUNNY   94  73  49 SW8       30.02S HX 102
GREENVILLE     FAIR      87  72  60 VRB5      30.04F HX  93
$$

ALZ019-021-028-029-037-038-045>048-202300-
EAST CENTRAL ALABAMA

CITY           SKY/WX    TMP DP  RH WIND       PRES   REMARKS
ANNISTON       MOSUNNY   91  71  51 SW6       30.03R HX  97
ALEXANDER CITY   N/A     78  72  80 CALM      30.07R THUNDER
AUBURN         MOSUNNY   90  70  51 W9        30.10R HX  95
$$

ALZ051>064-202300-
SOUTHWEST ALABAMA

CITY           SKY/WX    TMP DP  RH WIND       PRES   REMARKS
MOBILE         PTSUNNY   88  77  69 SW10      30.05S HX 100
BROOKLEY FIELD MOSUNNY   89  78  70 S9G17     30.05S HX 103
EVERGREEN      PTSUNNY   85  75  72 E5        30.05S HX  93
$$

ALZ049-050-065>069-202300-
SOUTHEAST ALABAMA

CITY           SKY/WX    TMP DP  RH WIND       PRES   REMARKS
DOTHAN         LGT RAIN  81  72  74 SW10      30.08R
OZARK          PTSUNNY   82  72  69 NE6       30.04F
TROY           MOSUNNY   89  74  60 SW8       30.04S HX  98
EUFAULA        FAIR      94  71  47 VRB3      30.02S HX 101
$$


USA.gov is the U.S. government's official web portal to all federal, state and local government web resources and services.